sat.trackr.live / text

‹ back to catalog

STARLINK-3988

NORAD 52625 · 2022-052AD

PAYLOAD ACTIVE UNKNOWN

§ Identity

Operator
Country
US
Launch date
2022-05-14
Launch site
AFETR
Launch vehicle
Mass (kg)
RCS (m²)

Purposes: comms

External: N2YO · Heavens-Above · Gunter

§ Orbital elements

Epoch: 2026-09-20T02:18:34.811136Z

Period
93.79 min
Inclination
53.1587°
Eccentricity
0.0001111
Mean motion
15.35397980 rev/d
Perigee alt
459.0 km
Apogee alt
460.5 km
Semi-major
6,837.9 km
B*
2.6343e-5
RAAN
104.0359°
Arg perigee
85.1024°
Mean anomaly
275.0106°
Rev number
24,050

§ Raw data

STARLINK-39881 52625U 22052AD  26263.09623624  .00000538  00000+0  26343-4 0  99992 52625  53.1587 104.0359 0001111  85.1024 275.0106 15.35397980240509

JSON: /api/v1/satellites/52625 · /tle

For live sub-satellite position, see the globe view (requires WebGL).

§ Visibility from observer

Set your observer location to see the next 7 days of passes ≥ 10°. The values pass through the URL so the page stays shareable.

No JS? Fill the form by hand. The geolocation button needs JavaScript.